[[{"header":{"parameterUnit":"m.s-1","parameterCategory":1,"la1":30.2991,"la2":30.254,"lo1":-89.0895,"lo2":-89.0444,"dy":0.0017,"dx":0.0017,"nx":28,"ny":28,"refTime":"2025-11-28T03:00:00:Z","depth":0,"parameterNumber":2,"parameterNumberName":"U-component_of_WINDS"},"data":[0,0,0,0,0,0,0,0,0,0,0,0,0,0,0,0,0,0,0,0,0,0,0,0,0,0,0,0,0,0,0,0,0,0,0,0,0,0,0,0,0,0,0,0,0,0,0,0,0,0,0,0,0,0,0,0,0,0,-4.3145,-4.3147,0,-4.3345,-4.3348,-4.335,-4.337,-4.3367,-4.3365,-4.3363,-4.3567,-4.3574,-4.3581,0,0,0,0,0,0,0,0,0,0,0,0,0,-4.2776,-4.2783,-4.3144,-4.3147,-4.315,-4.3345,-4.3348,-4.335,-4.337,-4.3367,-4.3365,-4.3362,-4.3565,-4.3573,-4.3582,0,0,0,0,0,0,0,0,0,0,0,0,0,-4.2953,-4.2785,-4.3144,-4.3183,-4.3188,-4.3344,-4.3348,-4.3351,-4.337,-4.3367,-4.3364,-4.3361,-4.3562,-4.3572,-4.3583,-4.3714,0,0,-4.3617,-4.3622,0,0,0,0,0,0,0,0,-4.2943,-4.2966,-4.3175,-4.318,-4.3187,-4.3329,-4.3293,-4.3473,-4.3371,-4.3301,-4.3363,-4.336,-4.349,-4.3507,-4.3551,-4.3723,-4.3732,-4.3618,-4.3625,-4.3629,-4.3633,0,0,0,0,0,0,0,-4.293,-4.2957,-4.3224,-4.3178,-4.3185,-4.319,-4.3211,-4.3327,-4.3411,-4.3307,-4.3309,-4.3333,-4.3493,-4.3541,-4.3556,-4.3735,-4.3618,-4.3628,-4.3634,-4.3639,-4.4024,-4.4027,0,0,0,0,0,0,-4.2911,-4.2947,-4.3218,-4.323,-4.3055,-4.3199,-4.3223,-4.3287,-4.341,-4.3425,-4.3335,-4.3333,-4.3523,-4.3543,-4.3564,-4.3724,-4.3629,-4.364,-4.3646,-4.402,-4.4025,-4.4029,0,0,0,0,0,0,-4.2903,-4.2935,-4.3209,-4.3089,-4.3125,-4.3209,-4.328,-4.3292,-4.334,-4.3431,-4.3446,-4.3369,-4.3522,-4.3548,-4.3676,-4.3731,-4.3645,-4.3655,-4.4016,-4.4022,-4.4027,-4.4046,0,0,0,0,0,0,-4.2892,-4.2932,-4.2983,-4.309,-4.3131,-4.3319,-4.3283,-4.3298,-4.3359,-4.3358,-4.3466,-4.3481,-4.3521,-4.366,-4.3687,-4.3745,-4.3663,-4.4012,-4.4019,-4.4025,-4.404,-4.4051,-4.406,0,0,0,0,0,-4.2879,-4.298,-4.2985,-4.3018,-4.3196,-4.3322,-4.3346,-4.3391,-4.3364,-4.3415,-4.3473,-4.3477,-4.3721,-4.3673,-4.3704,-4.3766,-4.4008,-4.4017,-4.4025,-4.4036,-4.4049,-4.406,0,0,0,0,0,0,-4.2876,-4.2994,-4.3002,-4.314,-4.3221,-4.3325,-4.3392,-4.3403,-4.3493,-4.3488,-4.3539,-4.3564,-4.369,-4.3741,-4.3685,-4.3898,-4.3862,-4.3877,-4.386,-4.3873,-4.3883,-4.3867,-4.3673,0,0,0,0,0,-4.2891,-4.2984,-4.3083,-4.3196,-4.3236,-4.3307,-4.3364,-4.3392,-4.3477,-4.3511,-4.3579,-4.3661,-4.3756,-4.3818,-4.391,-4.4049,-4.4072,-4.4106,-4.4116,-4.4124,-4.4135,-4.4211,-4.4228,-4.4055,-4.4055,-4.4055,0,0,-4.2924,-4.3,-4.3056,-4.3197,-4.3263,-4.3357,-4.3335,-4.3437,-4.3507,-4.3526,-4.3651,-4.3704,-4.38,-4.3933,-4.3995,-4.398,-4.4188,-4.4134,-4.4139,-4.4147,-4.4221,-4.4238,-4.4252,-4.4061,-4.406,-4.4059,0,0,-4.3031,-4.3099,-4.32,-4.3267,-4.3367,-4.3414,-4.3438,-4.3541,-4.3577,-4.3704,-4.372,-4.3805,-4.3968,-4.4035,-4.409,-4.4224,-4.4231,-4.4253,-4.4303,-4.4377,-4.439,-4.4403,-4.4449,-4.4465,-4.4265,-4.4265,-4.4265,0,-4.3058,-4.3202,-4.325,-4.3351,-4.3412,-4.3435,-4.3537,-4.36,-4.3725,-4.3766,-4.3747,-4.3952,-4.4018,-4.4167,-4.42,-4.4245,-4.4273,-4.424,-4.4385,-4.4398,-4.441,-4.4455,-4.4472,-4.4267,-4.4266,-4.4266,-4.4266,0,-4.323,-4.333,-4.3399,-4.352,-4.359,-4.3691,-4.3753,-4.3818,-4.384,-4.3888,-4.4017,-4.4097,-4.4206,-4.4244,-4.4266,-4.4397,-4.4384,-4.4374,-4.4338,-4.4427,-4.447,-4.4488,-4.4269,-4.4269,-4.4268,-4.4268,0,0,-4.334,-4.3486,-4.3511,-4.3566,-4.3679,-4.3757,-4.3859,-4.3966,-4.402,-4.4106,-4.4192,-4.433,-4.4322,-4.4385,-4.4415,-4.448,-4.458,-4.4463,-4.4466,-4.448,-4.4727,-4.4732,-4.4751,-4.4586,-4.4589,-4.4592,-4.4718,0,-4.3458,-4.3641,-4.3687,-4.3843,-4.3935,-4.3958,-4.4047,-4.4126,-4.4174,-4.4259,-4.4312,-4.4409,-4.4392,-4.443,-4.4495,-4.4553,-4.4629,-4.4545,-4.4665,-4.4669,-4.4638,-4.4773,-4.4779,-4.4894,-4.4735,-4.4738,-4.474,0,-4.3621,-4.3711,-4.3876,-4.3977,-4.4017,-4.4096,-4.4198,-4.4279,-4.4369,-4.4399,-4.447,-4.4495,-4.4601,-4.4561,-4.4708,-4.465,-4.4702,-4.4738,-4.4744,-4.4755,-4.4708,-4.4787,-4.4932,-4.4949,-4.4768,-4.4765,-4.4763,0,-4.3682,-4.3845,-4.3964,-4.4011,-4.4132,-4.4187,-4.424,-4.4326,-4.4388,-4.4477,-4.4517,-4.4618,-4.4672,-4.4749,-4.48,-4.4766,-4.4942,-4.4907,-4.497,-4.4968,-4.5004,-4.5001,-4.5158,-4.504,-4.504,-4.504,-4.5039,0,-4.381,-4.3909,-4.3993,-4.4066,-4.4178,-4.4231,-4.434,-4.4393,-4.4471,-4.4554,-4.4581,-4.4659,-4.4722,-4.4808,-4.4848,-4.4963,-4.4988,-4.5015,-4.5024,-4.5012,-4.5008,-4.5045,-4.5038,-4.5044,-4.5043,-4.5042,-4.5042,0,-4.3896,-4.3957,-4.4088,-4.4192,-4.4221,-4.4299,-4.4388,-4.4459,-4.4509,-4.4614,-4.4642,-4.472,-4.4823,-4.4881,-4.5011,-4.5038,-4.5165,-4.5172,-4.5135,-4.5139,-4.5198,-4.5191,-4.5383,-4.541,-4.5276,-4.5277,-4.5278,0,-4.3972,-4.4049,-4.4162,-4.422,-4.4274,-4.4367,-4.443,-4.4485,-4.455,-4.4658,-4.4716,-4.4821,-4.4907,-4.5071,-4.5138,-4.5237,-4.5245,-4.5306,-4.526,-4.5245,-4.5244,-4.5238,-4.5246,-4.5313,-4.5314,-4.5315,-4.5316,0,-4.41,-4.4127,-4.4217,-4.4318,-4.4393,-4.4475,-4.4556,-4.4602,-4.467,-4.4741,-4.4847,-4.4914,-4.5047,-4.515,-4.5255,-4.5309,-4.5324,-4.533,-4.535,-4.5337,-4.5312,-4.5324,-4.5155,-4.5325,-4.5324,-4.5323,-4.5323,-4.5323,-4.4183,-4.4253,-4.4343,-4.4442,-4.4509,-4.4585,-4.4657,-4.4716,-4.4806,-4.4918,-4.4945,-4.5056,-4.5144,-4.5286,-4.5343,-4.543,-4.5419,-4.5448,-4.5455,-4.5461,-4.5462,-4.5299,-4.545,-4.545,-4.5449,-4.5449,-4.5449,0,-4.4312,-4.4371,-4.4462,-4.4575,-4.4654,-4.4662,-4.4753,-4.4817,-4.4915,-4.4996,-4.508,-4.5202,-4.5302,-4.5378,-4.5481,-4.5536,-4.5545,-4.5561,-4.5556,-4.5568,-4.5466,-4.5438,-4.5552,-4.5551,-4.5551,-4.5551,-4.5551,-4.5551,-4.4388,-4.4505,-4.4542,-4.4693,-4.4752,-4.4861,-4.4912,-4.4981,-4.5046,-4.5181,-4.5264,-4.5314,-4.5393,-4.5501,-4.5594,-4.5613,-4.5649,-4.5664,-4.5684,-4.5587,-4.5576,-4.5565,-4.5539,-4.5671,-4.5671,-4.5779,-4.578,-4.578]},{"header":{"parameterUnit":"m.s-1","parameterCategory":1,"la1":30.2991,"la2":30.254,"lo1":-89.0895,"lo2":-89.0444,"dy":0.0017,"dx":0.0017,"nx":28,"ny":28,"refTime":"2025-11-28T03:00:00:Z","depth":0,"parameterNumber":3,"parameterNumberName":"V-component_of_WINDS"},"data":[0,0,0,0,0,0,0,0,0,0,0,0,0,0,0,0,0,0,0,0,0,0,0,0,0,0,0,0,0,0,0,0,0,0,0,0,0,0,0,0,0,0,0,0,0,0,0,0,0,0,0,0,0,0,0,0,0,0,4.6467,4.6466,0,4.6352,4.6351,4.635,4.6239,4.6237,4.6236,4.6235,4.6105,4.6103,4.6101,0,0,0,0,0,0,0,0,0,0,0,0,0,4.6583,4.6582,4.6467,4.6466,4.6465,4.6352,4.6351,4.6349,4.6239,4.6237,4.6236,4.6234,4.6106,4.6103,4.61,0,0,0,0,0,0,0,0,0,0,0,0,0,4.6507,4.6581,4.6468,4.6396,4.6389,4.6353,4.6351,4.6349,4.6239,4.6237,4.6235,4.6233,4.6106,4.6103,4.61,4.6121,0,0,4.609,4.6089,0,0,0,0,0,0,0,0,4.6511,4.6503,4.6408,4.6401,4.6393,4.6308,4.6344,4.6272,4.624,4.6296,4.6235,4.6232,4.6173,4.6164,4.6147,4.6115,4.611,4.609,4.6088,4.6086,4.6085,0,0,0,0,0,0,0,4.6517,4.6507,4.6421,4.6407,4.6398,4.6367,4.6354,4.633,4.6247,4.6291,4.6283,4.6271,4.6168,4.615,4.6143,4.6108,4.609,4.6087,4.6085,4.6084,4.6088,4.609,0,0,0,0,0,0,4.6534,4.6512,4.6425,4.6418,4.6449,4.6367,4.6352,4.6337,4.6247,4.6232,4.6273,4.6266,4.6157,4.6147,4.6138,4.6156,4.6086,4.6083,4.6081,4.6086,4.6088,4.609,0,0,0,0,0,0,4.6537,4.6528,4.643,4.6463,4.6448,4.6367,4.6351,4.6336,4.6318,4.6234,4.6218,4.627,4.6155,4.6143,4.6127,4.615,4.6082,4.6079,4.6083,4.6086,4.6089,4.6194,0,0,0,0,0,0,4.6541,4.6529,4.6538,4.6464,4.6447,4.6424,4.6353,4.6335,4.6314,4.6304,4.6227,4.6212,4.6152,4.6133,4.6124,4.6144,4.6076,4.6081,4.6085,4.6088,4.6188,4.62,4.621,0,0,0,0,0,4.6546,4.657,4.6539,4.6529,4.6457,4.6425,4.6415,4.6349,4.6316,4.6323,4.627,4.6214,4.6151,4.6132,4.6121,4.6141,4.6079,4.6084,4.6088,4.6182,4.6197,4.621,0,0,0,0,0,0,4.6644,4.6558,4.6524,4.6525,4.6484,4.6407,4.6413,4.6367,4.6331,4.6323,4.624,4.6223,4.6217,4.6178,4.6159,4.6157,4.6107,4.611,4.6182,4.6196,4.6207,4.6214,4.6074,0,0,0,0,0,4.6667,4.6651,4.6576,4.6584,4.6566,4.6494,4.6478,4.6432,4.6384,4.6364,4.6309,4.6262,4.6231,4.6212,4.6179,4.6184,4.6163,4.6192,4.6203,4.6213,4.6215,4.6213,4.6224,4.6106,4.6106,4.6106,0,0,4.6711,4.6663,4.6657,4.6603,4.6565,4.6549,4.648,4.6464,4.645,4.636,4.6343,4.6302,4.6244,4.6239,4.6233,4.6205,4.6244,4.6219,4.6228,4.6223,4.6219,4.623,4.6241,4.6109,4.6108,4.6108,0,0,4.6783,4.6747,4.6749,4.6715,4.6661,4.6614,4.6615,4.6546,4.6517,4.65,4.6432,4.6413,4.6362,4.6323,4.6297,4.636,4.6307,4.6352,4.6409,4.6409,4.6418,4.6426,4.6446,4.6454,4.6355,4.6355,4.6355,0,4.6844,4.6819,4.6756,4.6745,4.6723,4.6648,4.6648,4.6617,4.6553,4.6538,4.651,4.6446,4.6401,4.6386,4.6402,4.6384,4.638,4.6357,4.6423,4.643,4.6436,4.6454,4.6462,4.6361,4.636,4.636,4.6359,0,4.6895,4.6879,4.6888,4.6833,4.6812,4.6808,4.6742,4.6727,4.6685,4.664,4.6623,4.6569,4.6523,4.6517,4.6473,4.6496,4.648,4.6439,4.6385,4.6454,4.6469,4.6476,4.6369,4.6367,4.6365,4.6364,0,0,4.702,4.6935,4.6939,4.6914,4.6851,4.6836,4.6828,4.6789,4.6777,4.6738,4.6727,4.6688,4.6651,4.6621,4.6573,4.6573,4.6625,4.6531,4.6528,4.6548,4.6644,4.6673,4.6682,4.6592,4.6593,4.6594,4.6648,0,4.7079,4.7063,4.7008,4.7007,4.699,4.6921,4.6914,4.6874,4.6833,4.6811,4.6764,4.6738,4.6691,4.6673,4.6671,4.6619,4.6642,4.6615,4.6576,4.6576,4.6589,4.669,4.672,4.6773,4.6654,4.6655,4.6656,0,4.7143,4.7113,4.7112,4.7052,4.7043,4.7038,4.6998,4.698,4.6932,4.6902,4.6873,4.6821,4.6806,4.6762,4.6739,4.6722,4.6703,4.6676,4.6677,4.6666,4.6617,4.6679,4.6789,4.6795,4.6665,4.6664,4.6663,0,4.7231,4.719,4.7184,4.7165,4.7096,4.7094,4.7064,4.7016,4.6996,4.6961,4.6947,4.691,4.6888,4.6859,4.6797,4.6771,4.6781,4.6731,4.6752,4.6754,4.6752,4.6752,4.6857,4.6749,4.6748,4.6748,4.6748,0,4.7299,4.73,4.7223,4.7218,4.7218,4.7155,4.7155,4.7119,4.7077,4.7063,4.7001,4.6988,4.691,4.6888,4.684,4.6827,4.6818,4.6791,4.6778,4.6794,4.6798,4.6777,4.677,4.675,4.675,4.6749,4.6749,0,4.7394,4.7343,4.7331,4.7269,4.7254,4.7256,4.7201,4.7193,4.7152,4.7135,4.7127,4.7059,4.703,4.6969,4.6921,4.6889,4.6886,4.6865,4.6903,4.6894,4.6918,4.6915,4.7009,4.7017,4.6908,4.6909,4.691,0,4.7439,4.7439,4.7379,4.7367,4.7342,4.7323,4.7304,4.7243,4.7226,4.7175,4.7173,4.7141,4.711,4.7067,4.7011,4.6975,4.695,4.6986,4.6943,4.696,4.6946,4.6945,4.6944,4.6993,4.6994,4.6996,4.6997,0,4.7523,4.7499,4.7476,4.7446,4.7427,4.7398,4.7366,4.736,4.7291,4.7274,4.7246,4.7224,4.7179,4.7146,4.7103,4.7068,4.702,4.7012,4.7014,4.7029,4.705,4.7036,4.6925,4.7008,4.7007,4.7006,4.7005,4.7005,4.7591,4.7589,4.7547,4.7524,4.7495,4.7468,4.7458,4.7418,4.7395,4.7356,4.7322,4.7297,4.7251,4.7189,4.7159,4.7136,4.7112,4.7116,4.7116,4.7117,4.7123,4.7059,4.7128,4.7128,4.7127,4.7127,4.7127,0,4.767,4.7641,4.7621,4.7581,4.7563,4.7527,4.7491,4.7477,4.7457,4.7421,4.7395,4.7363,4.7332,4.7277,4.7241,4.7234,4.7211,4.7226,4.7223,4.7216,4.7148,4.7149,4.7245,4.7245,4.7245,4.7245,4.7245,4.7245,4.7708,4.7701,4.7673,4.7651,4.7621,4.76,4.7582,4.7556,4.7527,4.7496,4.7472,4.7439,4.7394,4.7355,4.7324,4.7309,4.7296,4.7318,4.7295,4.7232,4.722,4.721,4.7209,4.7317,4.7317,4.7364,4.7364,4.7365]}]]